Location: Grange Verzio
(44.5000°N, 6.9833°E)
Time: 17:46:41
(UTC+00:00)

BlueWalker 3 - Pass Details

Date: 01 February 2023
Orbit: 497 x 514 km, 53.2° (Epoch: 29 March)

Event Time Altitude Azimuth Distance (km) Brightness Sun altitude
Rises 17:24:25 0° 268° (W) 2,593 7.5 -8.2°
Reaches altitude 10° 17:26:47 10° 279° (W) 1,714 5.8 -8.6°
Maximum altitude 17:30:15 30° 342° (NNW) 921 3.3 -9.2°
Enters shadow 17:33:45 10° 46° (NE) 1,727 4.1 -9.8°
